TimeCST,TemperatureF,Dew PointF,Humidity,Sea Level PressureIn,VisibilityMPH,Wind Direction,Wind SpeedMPH,Gust SpeedMPH,PrecipitationIn,Events,Conditions,WindDirDegrees,DateUTC
12:41 AM,57.2,42.8,59,30.24,8.0,NE,4.6,-,N/A,,Scattered Clouds,40,2012-11-02 06:41:00
1:42 AM,57.2,44.6,63,30.24,8.0,Calm,Calm,-,N/A,,Mostly Cloudy,0,2012-11-02 07:42:00
2:42 AM,55.4,51.8,88,29.86,8.0,Calm,Calm,-,N/A,,Mostly Cloudy,0,2012-11-02 08:42:00
3:42 AM,55.4,55.4,100,30.21,8.0,NE,4.6,-,N/A,,Mostly Cloudy,50,2012-11-02 09:42:00
4:41 AM,55.4,55.4,100,30.21,8.0,NNE,3.5,-,N/A,,Mostly Cloudy,30,2012-11-02 10:41:00
5:43 AM,55.4,53.6,94,29.91,8.0,Calm,Calm,-,N/A,,Overcast,0,2012-11-02 11:43:00
6:42 AM,53.6,53.6,100,30.24,8.0,Calm,Calm,-,N/A,,Mostly Cloudy,0,2012-11-02 12:42:00
7:42 AM,53.6,53.6,100,30.24,9.0,Calm,Calm,-,N/A,,Mostly Cloudy,0,2012-11-02 13:42:00
8:40 AM,64.4,50.0,59,29.92,9.0,Calm,Calm,-,N/A,,Mostly Cloudy,0,2012-11-02 14:40:00
9:43 AM,66.2,48.2,52,30.27,9.0,Calm,Calm,-,N/A,,Mostly Cloudy,0,2012-11-02 15:43:00
10:45 AM,69.8,48.2,46,30.27,9.0,Calm,Calm,-,N/A,,Mostly Cloudy,0,2012-11-02 16:45:00
11:41 AM,75.2,48.2,38,29.88,9.0,East,6.9,-,N/A,,Mostly Cloudy,100,2012-11-02 17:41:00
12:40 PM,77.0,46.4,34,30.21,9.0,Calm,Calm,-,N/A,,Mostly Cloudy,0,2012-11-02 18:40:00
1:44 PM,78.8,44.6,30,30.15,10.0,Calm,Calm,-,N/A,,Mostly Cloudy,0,2012-11-02 19:44:00
2:40 PM,80.6,42.8,26,29.72,10.0,South,4.6,-,N/A,,Scattered Clouds,190,2012-11-02 20:40:00
3:46 PM,78.8,41.0,26,30.09,10.0,Calm,Calm,-,N/A,,Mostly Cloudy,0,2012-11-02 21:46:00
4:42 PM,73.4,42.8,33,30.09,10.0,NNE,4.6,-,N/A,,Mostly Cloudy,20,2012-11-02 22:42:00
5:40 PM,71.6,42.8,35,29.76,10.0,Calm,Calm,-,N/A,,Mostly Cloudy,0,2012-11-02 23:40:00
6:40 PM,66.2,44.6,46,30.12,8.0,NE,3.5,-,N/A,,Mostly Cloudy,50,2012-11-03 00:40:00
8:43 PM,60.8,44.6,55,29.83,8.0,ENE,3.5,-,N/A,,Mostly Cloudy,60,2012-11-03 02:43:00
9:46 PM,62.6,46.4,55,30.18,8.0,Calm,Calm,-,N/A,,Mostly Cloudy,0,2012-11-03 03:46:00
10:45 PM,60.8,46.4,59,30.20,8.0,Calm,Calm,-,N/A,,Mostly Cloudy,0,2012-11-03 04:45:00
11:49 PM,60.8,46.4,59,29.84,8.0,Calm,Calm,-,N/A,,Mostly Cloudy,0,2012-11-03 05:49:00